#timestamp,LO_Frequency,Hit 
1499234415.9,286046995.2,N
1499234435.7,286046993.8,N
1499234455.5,286046993.8,N
1499234475.4,286046994.8,N
1499234495.2,286046991.7,Y
1499234515.1,286046997.8,N
1499234516.0,286046997.8,N
1499234535.8,286046997.9,N
1499234555.6,286046997.8,N
1499234575.5,286046998.0,N
1499234595.3,286046997.8,N
1499234615.1,286046996.9,N
1499234635.9,286046996.9,N
1499234655.7,286046997.0,N
1499234675.6,286046997.3,N
1499234695.4,286046999.5,N
1499234715.2,286046999.2,N
1499234735.1,286046996.7,N
1499234736.0,286046996.7,N
1499234755.8,286046996.7,N
1499234775.7,286046997.3,N
1499234795.5,286046996.9,N
1499234815.3,286046998.9,N
1499234835.2,286046999.0,N
1499234855.0,286046998.3,N
1499234855.9,286046998.3,N
1499234875.8,286046999.1,N
1499234895.6,286046998.2,N
1499234915.4,286046998.3,N
1499234935.3,286046998.4,N
1499234955.1,286047001.1,N
1499234975.8,286046998.3,N
1499234995.7,286047001.0,N
1499235015.5,286047001.0,N
1499235035.4,286047000.9,N
1499235055.2,286046999.0,N
1499235075.0,286046996.9,N
1499235075.9,286046996.9,N
1499235095.8,286046997.8,N
1499235115.6,286046995.5,N
1499235135.4,286046994.9,N
1499235155.3,286046997.6,N
1499235175.1,286046996.1,N
1499235195.9,286046995.4,N
1499235215.7,286046995.2,N
1499235235.5,286046997.8,N
1499235255.4,286046997.4,N
1499235275.2,286046997.6,N
1499235295.0,286046995.1,N
1499235295.9,286046995.1,N
1499235315.8,286046993.3,Y
1499235335.6,286046999.1,N
1499235355.5,286046998.8,N
1499235375.3,286046996.6,N
1499235395.1,286046997.3,N
1499235415.9,286046997.2,N
1499235435.7,286046997.4,N
1499235455.6,286046998.0,N
1499235475.4,286046997.3,N
1499235495.2,286046997.7,N
1499235515.1,286046995.1,N
1499235516.0,286046995.1,N
1499235535.8,286046997.0,N
1499235555.6,286046996.8,N
1499235575.5,286046996.6,N
1499235595.3,286046995.0,N
1499235615.1,286046994.9,N
1499235635.9,286046996.6,N
1499235655.7,286046997.6,N
1499235675.6,286046997.6,N
1499235695.4,286046995.4,N
1499235715.2,286046995.0,N
1499235735.1,286046995.6,N
1499235736.0,286046995.6,N
1499235755.8,286046996.0,N
1499235775.7,286046996.3,N
1499235795.5,286046995.6,N
1499235815.3,286046997.9,N
1499235835.2,286046995.5,N
1499235855.0,286046994.9,N
1499235855.9,286046994.9,N
1499235875.8,286046995.6,N
1499235895.6,286046993.3,Y
1499235915.4,286046997.2,N
1499235935.3,286046999.1,N
1499235955.1,286046999.2,N
1499235975.9,286046999.5,N
1499235995.7,286046999.2,N
1499236015.5,286046998.8,N
1499236035.4,286046999.6,N
1499236055.2,286046999.4,N
1499236075.0,286046999.2,N
1499236075.9,286046999.2,N
1499236095.8,286046998.5,N
1499236115.6,286047001.2,N
1499236135.5,286046998.3,N
1499236155.3,286046998.3,N
1499236175.1,286047000.9,N
1499236195.9,286047000.6,N
1499236215.7,286046999.4,N
1499236235.5,286046999.6,N
1499236255.4,286046996.5,N
1499236275.2,286046996.7,N
1499236295.0,286046997.7,N
1499236296.0,286046997.7,N
1499236315.8,286046998.0,N
1499236335.6,286046997.2,N
1499236355.5,286046997.0,N
1499236375.3,286046995.3,N
1499236395.1,286046994.9,N
1499236415.9,286046995.0,N
1499236435.7,286046995.2,N
1499236455.6,286046996.1,N
1499236475.4,286046995.7,N
1499236495.2,286046995.2,N
1499236515.1,286046995.2,N
1499236546.0,286046995.3,Y
1499236555.0,286046996.5,N
1499236555.9,286046996.5,N
1499236575.8,286047002.8,N
1499236595.6,286047002.3,N
1499236615.4,286047001.7,N
1499236635.3,286047004.4,N
1499236655.1,286047004.4,N
1499236675.9,286047002.0,N
1499236695.7,286047002.1,N
1499236715.5,286047002.2,N
1499236735.4,286047000.1,N
1499236755.2,286047000.6,N
1499236775.0,286047002.8,N
1499236775.9,286047002.8,N
1499236795.8,286047000.0,N
1499236815.6,286046998.7,N
1499236835.5,286047000.8,N
1499236855.3,286046998.4,N
1499236875.1,286046999.0,N
1499236895.9,286046999.4,N
1499236915.7,286046998.3,N
1499236935.5,286046999.3,N
1499236955.4,286046999.3,N
1499236975.2,286046998.3,N
1499236995.1,286046999.1,N
1499236996.0,286046999.1,N
1499237015.8,286046998.7,N
1499237035.6,286046998.4,N
1499237055.5,286046998.4,N
1499237075.3,286046999.3,N
1499237095.1,286046998.8,N
1499237115.9,286046999.6,N
1499237135.7,286046996.9,N
1499237155.6,286046997.8,N
1499237175.4,286046997.2,N
1499237195.2,286046996.9,N
1499237215.1,286046998.9,N
1499237216.0,286046998.9,N
1499237235.8,286046998.5,N
1499237255.7,286047000.5,N
1499237275.5,286047000.2,N
1499237295.3,286047000.7,N
1499237315.2,286047001.0,N
1499237335.9,286047000.7,N
1499237355.7,286047000.3,N
1499237375.6,286046998.9,N
1499237395.4,286046998.8,N
1499237415.2,286046998.8,N
1499237435.1,286046999.0,N
1499237436.0,286046999.0,N
1499237455.8,286046999.4,N
1499237475.7,286046999.4,N
1499237495.5,286046996.8,N
1499237515.3,286046997.1,N
1499237535.2,286046997.2,N
1499237555.0,286046999.6,N
1499237555.9,286046999.6,N
1499237575.8,286046999.5,N
1499237595.6,286046996.9,N
1499237615.4,286046997.1,N
1499237635.3,286046996.6,N
1499237655.1,286046998.7,N
1499237675.8,286046996.5,N
1499237695.7,286046996.7,N
1499237715.5,286046999.5,N
1499237735.4,286046999.4,N
1499237755.2,286046999.3,N
1499237775.0,286046998.9,N
1499237775.9,286046998.9,N
1499237795.8,286046999.6,N
1499237815.6,286046997.0,N
1499237835.5,286046999.4,N
1499237855.3,286046997.1,N
1499237875.1,286046996.7,N
1499237895.9,286046994.9,N
1499237915.7,286046997.9,N
1499237935.5,286046996.8,N
1499237955.4,286046996.5,N
1499237975.2,286046999.2,N
1499237995.1,286046999.5,N
1499237996.0,286046999.5,N
